• In Portugal
  • List of Countries
  • For 7 days
  • Water Temperature
  • Satellite Maps
  • Weather Map
  • Weather Widgets
  • user-avatar
    Login

    Hourly Weather Mendoza

    Today, 15 August, Wednesday

    Time Temperature Precipitation Wind Pressure Humidity
    00:00 +11°C° 0 mm 1 mps 701 mmHg 33%
    01:00 +10°C° 0 mm 1 mps 701 mmHg 32%
    02:00 +10°C° 0 mm 1 mps 701 mmHg 32%
    03:00 +10°C° 0 mm 1 mps 700 mmHg 33%
    04:00 +9°C° 0 mm 1 mps 700 mmHg 33%
    05:00 +10°C° 0 mm 1 mps 700 mmHg 32%
    06:00 +10°C° 0 mm 1 mps 701 mmHg 31%
    07:00 +11°C° 0 mm 1 mps 701 mmHg 24%
    08:00 +13°C° 0 mm 2 mps 701 mmHg 22%
    09:00 +15°C° 0 mm 2 mps 701 mmHg 21%
    10:00 +16°C° 0 mm 2 mps 701 mmHg 19%
    11:00 +18°C° 0 mm 2 mps 701 mmHg 19%
    12:00 +19°C° 0 mm 3 mps 700 mmHg 19%
    13:00 +20°C° 0 mm 3 mps 700 mmHg 19%
    14:00 +20°C° 0 mm 3 mps 700 mmHg 19%
    15:00 +20°C° 0 mm 3 mps 700 mmHg 19%
    16:00 +20°C° 0 mm 3 mps 700 mmHg 20%
    17:00 +19°C° 0 mm 2 mps 700 mmHg 22%
    18:00 +17°C° 0 mm 2 mps 700 mmHg 24%
    19:00 +16°C° 0 mm 2 mps 701 mmHg 26%
    20:00 +15°C° 0 mm 2 mps 701 mmHg 26%
    21:00 +15°C° 0 mm 2 mps 701 mmHg 26%
    22:00 +15°C° 0 mm 2 mps 701 mmHg 27%
    23:00 +14°C° 0 mm 2 mps 701 mmHg 28%

    Tomorrow, 16 August, Thursday

    Time Temperature Precipitation Wind Pressure Humidity
    00:00 +14°C° 0 mm 2 mps 700 mmHg 30%
    01:00 +13°C° 0 mm 2 mps 700 mmHg 31%
    02:00 +13°C° 0 mm 2 mps 700 mmHg 32%
    03:00 +12°C° 0 mm 2 mps 700 mmHg 32%
    04:00 +12°C° 0 mm 2 mps 699 mmHg 33%
    05:00 +12°C° 0 mm 2 mps 700 mmHg 33%
    06:00 +13°C° 0 mm 2 mps 700 mmHg 32%
    07:00 +13°C° 0 mm 2 mps 700 mmHg 32%
    08:00 +14°C° 0 mm 3 mps 700 mmHg 28%
    09:00 +18°C° 0 mm 3 mps 700 mmHg 25%
    10:00 +20°C° 0 mm 3 mps 700 mmHg 22%
    11:00 +21°C° 0 mm 4 mps 700 mmHg 20%
    12:00 +22°C° 0 mm 4 mps 700 mmHg 19%
    13:00 +25°C° 0 mm 4 mps 699 mmHg 18%
    14:00 +25°C° 0 mm 4 mps 699 mmHg 18%
    15:00 +25°C° 0 mm 4 mps 699 mmHg 18%
    16:00 +23°C° 0 mm 4 mps 699 mmHg 18%
    17:00 +22°C° 0 mm 3 mps 699 mmHg 20%
    18:00 +20°C° 0 mm 2 mps 699 mmHg 23%
    19:00 +18°C° 0 mm 2 mps 699 mmHg 25%
    20:00 +18°C° 0 mm 2 mps 699 mmHg 26%
    21:00 +17°C° 0 mm 2 mps 699 mmHg 27%
    22:00 +16°C° 0 mm 2 mps 699 mmHg 28%
    23:00 +16°C° 0 mm 2 mps 699 mmHg 30%

    Day after tomorrow, 17 August, Friday

    Time Temperature Precipitation Wind Pressure Humidity
    00:00 +15°C° 0 mm 2 mps 699 mmHg 31%
    01:00 +15°C° 0 mm 2 mps 698 mmHg 32%
    02:00 +14°C° 0 mm 2 mps 698 mmHg 33%
    03:00 +14°C° 0 mm 2 mps 698 mmHg 34%
    04:00 +14°C° 0 mm 2 mps 697 mmHg 36%
    05:00 +14°C° 0 mm 2 mps 697 mmHg 36%
    06:00 +14°C° 0 mm 2 mps 698 mmHg 37%
    07:00 +14°C° 0 mm 2 mps 698 mmHg 37%
    08:00 +16°C° 0 mm 2 mps 698 mmHg 33%
    09:00 +19°C° 0 mm 3 mps 699 mmHg 29%
    10:00 +21°C° 0 mm 3 mps 699 mmHg 26%
    11:00 +22°C° 0 mm 3 mps 698 mmHg 23%
    12:00 +24°C° 0 mm 3 mps 698 mmHg 21%
    13:00 +26°C° 0 mm 3 mps 697 mmHg 19%
    14:00 +26°C° 0 mm 3 mps 697 mmHg 18%
    15:00 +26°C° 0 mm 3 mps 697 mmHg 17%
    16:00 +26°C° 0 mm 3 mps 696 mmHg 16%
    17:00 +24°C° 0 mm 3 mps 696 mmHg 18%
    18:00 +21°C° 0 mm 3 mps 696 mmHg 21%
    19:00 +20°C° 0 mm 2 mps 696 mmHg 23%
    20:00 +19°C° 0 mm 3 mps 697 mmHg 24%
    21:00 +19°C° 0 mm 3 mps 697 mmHg 26%
    22:00 +18°C° 0 mm 3 mps 697 mmHg 27%
    23:00 +18°C° 0 mm 4 mps 697 mmHg 29%

    18 August, Saturday

    Time Temperature Precipitation Wind Pressure Humidity
    00:00 +17°C° 0 mm 4 mps 697 mmHg 31%
    01:00 +16°C° 0 mm 5 mps 697 mmHg 33%
    02:00 +15°C° 0 mm 6 mps 697 mmHg 34%
    03:00 +14°C° 0 mm 7 mps 697 mmHg 35%
    04:00 +12°C° 0 mm 8 mps 698 mmHg 36%
    05:00 +12°C° 0 mm 7 mps 698 mmHg 41%
    06:00 +11°C° 0 mm 7 mps 699 mmHg 45%
    07:00 +11°C° 0 mm 6 mps 700 mmHg 50%
    08:00 +11°C° 0.1 mm 6 mps 701 mmHg 48%
    09:00 +13°C° 0.1 mm 6 mps 701 mmHg 46%
    10:00 +13°C° 0.1 mm 6 mps 702 mmHg 45%
    11:00 +13°C° 0 mm 6 mps 702 mmHg 43%
    12:00 +13°C° 0 mm 6 mps 702 mmHg 42%
    13:00 +13°C° 0 mm 6 mps 701 mmHg 40%
    14:00 +12°C° 0 mm 5 mps 701 mmHg 38%
    15:00 +12°C° 0 mm 5 mps 701 mmHg 37%
    16:00 +11°C° 0 mm 4 mps 701 mmHg 35%
    17:00 +10°C° 0 mm 4 mps 702 mmHg 35%
    18:00 +9°C° 0 mm 3 mps 702 mmHg 36%
    19:00 +8°C° 0 mm 2 mps 703 mmHg 36%
    20:00 +7°C° 0 mm 3 mps 704 mmHg 37%
    21:00 +7°C° 0 mm 3 mps 704 mmHg 37%
    22:00 +5°C° 0 mm 3 mps 705 mmHg 38%
    23:00 +4°C° 0 mm 4 mps 705 mmHg 38%

    19 August, Sunday

    Time Temperature Precipitation Wind Pressure Humidity
    00:00 +4°C° 0 mm 4 mps 705 mmHg 38%
    01:00 +3°C° 0 mm 4 mps 705 mmHg 39%
    02:00 +3°C° 0 mm 4 mps 705 mmHg 40%
    03:00 +3°C° 0 mm 4 mps 705 mmHg 41%
    04:00 +1°C° 0 mm 4 mps 706 mmHg 41%
    05:00 +1°C° 0 mm 4 mps 707 mmHg 43%
    06:00 +1°C° 0 mm 4 mps 707 mmHg 44%
    07:00 +1°C° 0 mm 4 mps 708 mmHg 45%
    08:00 +3°C° 0 mm 4 mps 708 mmHg 44%
    09:00 +5°C° 0 mm 3 mps 708 mmHg 43%
    10:00 +7°C° 0 mm 3 mps 708 mmHg 42%
    11:00 +7°C° 0 mm 3 mps 708 mmHg 40%
    12:00 +8°C° 0 mm 2 mps 707 mmHg 39%
    13:00 +9°C° 0 mm 2 mps 706 mmHg 37%
    14:00 +9°C° 0 mm 2 mps 706 mmHg 37%
    15:00 +9°C° 0 mm 2 mps 706 mmHg 36%
    16:00 +9°C° 0 mm 2 mps 706 mmHg 36%
    17:00 +8°C° 0 mm 2 mps 707 mmHg 38%
    18:00 +8°C° 0 mm 2 mps 707 mmHg 39%
    19:00 +7°C° 0 mm 2 mps 708 mmHg 41%
    20:00 +7°C° 0 mm 2 mps 708 mmHg 41%
    21:00 +6°C° 0 mm 2 mps 708 mmHg 42%
    22:00 +6°C° 0 mm 2 mps 708 mmHg 42%
    23:00 +6°C° 0 mm 2 mps 707 mmHg 42%

    20 August, Monday

    Time Temperature Precipitation Wind Pressure Humidity
    00:00 +5°C° 0 mm 2 mps 707 mmHg 41%
    01:00 +5°C° 0 mm 2 mps 706 mmHg 41%
    02:00 +4°C° 0 mm 2 mps 706 mmHg 40%
    03:00 +4°C° 0 mm 2 mps 705 mmHg 38%
    04:00 +5°C° 0 mm 1 mps 705 mmHg 37%
    05:00 +5°C° 0 mm 1 mps 705 mmHg 35%
    06:00 +5°C° 0 mm 1 mps 705 mmHg 33%
    07:00 +6°C° 0 mm 1 mps 705 mmHg 31%
    08:00 +7°C° 0 mm 2 mps 705 mmHg 29%
    09:00 +9°C° 0 mm 3 mps 704 mmHg 27%
    10:00 +10°C° 0 mm 4 mps 704 mmHg 25%
    11:00 +12°C° 0 mm 4 mps 703 mmHg 23%
    12:00 +13°C° 0 mm 4 mps 703 mmHg 22%
    13:00 +14°C° 0 mm 5 mps 702 mmHg 21%
    14:00 +14°C° 0 mm 5 mps 701 mmHg 21%
    15:00 +14°C° 0 mm 4 mps 701 mmHg 21%
    16:00 +14°C° 0 mm 4 mps 701 mmHg 21%
    17:00 +13°C° 0 mm 3 mps 701 mmHg 23%
    18:00 +11°C° 0 mm 3 mps 701 mmHg 25%
    19:00 +10°C° 0 mm 2 mps 702 mmHg 27%
    20:00 +10°C° 0 mm 2 mps 702 mmHg 27%
    21:00 +9°C° 0 mm 2 mps 701 mmHg 27%
    22:00 +9°C° 0 mm 2 mps 701 mmHg 27%
    23:00 +9°C° 0 mm 2 mps 701 mmHg 28%
    Show more